Retour au catalogue

STARLINK-30938

ActifCommunicationsVLEO
NORAD 58389·PAYLOAD·🇺🇸 United States

Lancé Nov 20, 2023 depuis Vandenberg Space Force Base

Loading…

Prochains Passages (prochaines 24 heures)

TLE

FraisSource: CelesTrak SupGP

Époque: Sep 14, 2026, 20:52 UTC

1 58389C 23178R   26257.86993056  .00027599  00000+0  81522-3 0  2571
2 58389  53.1573 199.7151 0001320  97.0470 236.7002 15.34385074    16

Suivez STARLINK-30938 en temps réel avec AllMySat

Download on the App Store